Regional Weather Roundup
Issued by NWS Little Rock, AR

Home | Current Version | Previous Version | Text Only | Print | Product List | Glossary On
Versions: 1 2 3 4 5 6 7 8 9 10 11 12 13 14 15 16 17 18 19 20 21 22 23 24 25 26 27 28 29 30 31 32 33 34 35 36 37 38 39 40 41 42 43 44 45 46 47 48 49 50
000
ASUS44 KLZK 301705
RWRLZK

WEATHER ROUNDUP FOR ARKANSAS
NATIONAL WEATHER SERVICE LITTLE ROCK AR
1200 PM CDT SAT AUG 30 2014

NOTE: "FAIR" INDICATES FEW OR NO CLOUDS BELOW 12,000 FEET WITH NO
SIGNIFICANT WEATHER AND/OR OBSTRUCTIONS TO VISIBILITY.

ARZ001-003-010-029-301800-
NORTHWEST ARKANSAS

CITY           SKY/WX    TMP DP  RH WIND       PRES   REMARKS
FAYETTEVILLE   PTSUNNY   73  70  88 S8        30.02R
FORT SMITH     PTSUNNY   85  71  63 CALM      29.98S HX  90
HARRISON       CLOUDY    81  67  62 SW9       30.01F
BENTONVILLE    PTSUNNY   82  72  69 S10       30.02S HX  87
ROGERS         MOSUNNY   82  70  66 S10G17    30.02R HX  86
SILOAM SPGS    CLOUDY    81  66  61 SW8       30.01S
HIGHFILL       PTSUNNY   83  70  64 SW10      30.00S HX  87
SPRINGDALE     PTSUNNY   79  72  78 SW16      30.04R
$$

ARZ004-005-016-301800-
NORTH CENTRAL ARKANSAS

CITY           SKY/WX    TMP DP  RH WIND       PRES   REMARKS
BATESVILLE     CLOUDY    81  73  78 SW5       30.03S HX  85
FLIPPIN        PTSUNNY   79  68  69 S3        30.01F
MTN HOME       PTSUNNY   75  71  87 S6        30.01F
$$

ARZ040-041-301800-
WEST CENTRAL ARKANSAS

CITY           SKY/WX    TMP DP  RH WIND       PRES   REMARKS
MENA           CLOUDY    82  72  69 CALM      30.03R HX  87
MOUNT IDA      MOSUNNY   81  70  69 SE3       30.00S
$$

ARZ009-017-025-026-028-301800-
NORTHEAST ARKANSAS

CITY           SKY/WX    TMP DP  RH WIND       PRES   REMARKS
CORNING          N/A     81  75  83 SW9       30.03S HX  86
JONESBORO      CLOUDY    80  72  76 SW9       30.04R
NEWPORT        CLOUDY    82  74  77 S12G17    30.04S HX  88
WALNUT RIDGE   CLOUDY    79  72  78 S12       30.02S
BLYTHEVILLE    LGT RAIN  78  74  87 W7        30.05R
$$

ARZ022-023-033-042-044-301800-
CENTRAL ARKANSAS

CITY           SKY/WX    TMP DP  RH WIND       PRES   REMARKS
LITTLE ROCK    PTSUNNY   82  70  66 S7        30.02S HX  86
N LITTLE ROCK  PTSUNNY   83  71  65 S7        30.02S HX  87
JACKSONVILLE   PTSUNNY   83  72  68 S8        30.02S HX  88
SEARCY         CLOUDY    82  73  74 MISG      30.04R HX  87
HOT SPRINGS      N/A     81  71  71 SE3       30.02S HX  85
RUSSELLVILLE   MOSUNNY   82  71  69 SW5       30.00F HX  86
CLINTON        FAIR      82  75  78 S5        30.02S HX  89
$$

ARZ036-301800-
EAST ARKANSAS

CITY           SKY/WX    TMP DP  RH WIND       PRES   REMARKS
WEST MEMPHIS   RAIN      76  75  97 W6        30.05R FOG
$$

ARZ050-053-066-070-073-301800-
SOUTHWEST ARKANSAS

CITY           SKY/WX    TMP DP  RH WIND       PRES   REMARKS
ARKADELPHIA    FAIR      86  73  64 CALM      30.01S HX  93
CAMDEN         CLOUDY    82  72  69 S6        30.01S HX  87
TEXARKANA      PTSUNNY   85  72  65 VRB5      29.99F HX  91
EL DORADO      RAIN      75  74  96 SE9       30.02S FOG
DE QUEEN       PTSUNNY   82  72  71 VRB3      29.98S HX  87
$$

ARZ056-057-069-301800-
SOUTHEAST ARKANSAS

CITY           SKY/WX    TMP DP  RH WIND       PRES   REMARKS
PINE BLUFF     LGT RAIN  79  73  82 S9        30.03S
STUTTGART      CLOUDY    79  72  78 SE9       30.04S
MONTICELLO     LGT RAIN  77  74  90 S6        30.05R

$$





USA.gov is the U.S. government's official web portal to all federal, state and local government web resources and services.